Tracking 19199 objects as of 25-Jun-2018
HD Live streaming from Space Station
objects crossing your sky now

FENGYUN 1C DEB

Track FENGYUN 1C DEB now!
10-day predictions


NORAD ID: 35186
Int'l Code: 1999-025DNS
Perigee: 757.5 km
Apogee: 844.9 km
Inclination: 99.6 °
Period: 100.7 minutes
Semi major axis: 7172 km
RCS: 0.0088 m2 (small)
Launch date: May 10, 1999
Source: People's Republic of China (PRC)
Launch site: Taiyaun Space Center, China (TSC)

Note: This is SATELLITE DEBRIS
aabbcc
Your satellite tracking list
Your tracking list is empty




NASA's NSSDC Master Catalog

Two Line Element Set (TLE):
1 35186U 99025DNS 18172.00236558  .00000519  00000-0  22003-3 0  9991
2 35186  99.5810 246.4530 0060971  14.1835 346.1039 14.29298729545032
Source of the keplerian elements: AFSPC